Location: Hiram
(41.3130°N, 81.1440°W)
Time: 22:36:04
(UTC-04:00)

Daily predictions for brighter satellites

Satellite Brightness Start Highest point End
(mag) Time Altitude Azimuth Time Altitude Azimuth Time Altitude Azimuth
Cosmos 2219 3.2 20:29:14 10° NNW 20:34:54 86° ENE 20:40:31 10° SSE
Cosmos 1777 Rocket 4.4 20:30:28 10° N 20:35:31 45° ENE 20:40:33 10° SE
Lacrosse 5 rocket 3.3 20:35:33 10° NNW 20:37:51 15° NNE 20:40:06 10° ENE
OE (NEXTSAT) 4.5 20:34:24 10° WNW 20:37:59 78° NNE 20:41:33 10° ESE
Cosmos 1544 Rocket 4.1 20:34:29 10° SSE 20:38:30 38° E 20:42:35 10° NNE
Okean 1 Rocket 4.1 20:34:30 10° SSW 20:38:47 52° W 20:43:04 10° N
Cosmos 1315 Rocket 2.8 20:35:47 10° S 20:39:46 80° E 20:43:49 10° NNE
Cosmos 1400 Rocket 3.8 20:36:32 10° SSW 20:40:35 56° WNW 20:44:37 10° N
Meteor 2-4 Rocket 3.8 20:38:58 10° N 20:44:47 70° E 20:50:41 10° SSE
CZ-3C R/B 4.4 19:30:56 10° WSW 20:46:17 37° SSW 20:56:27 10° SE
Cosmos 1656 Rocket 4.0 20:40:59 10° SSW 20:46:35 72° WNW 20:52:08 10° NNE
Cosmos 1821 Rocket 4.0 20:42:14 10° S 20:48:16 64° E 20:54:17 10° NNE
ATLAS CENTAUR R/B 2.9 20:43:46 10° SW 20:48:41 52° NW 20:53:31 10° NNE
Cosmos 2278 4.3 20:47:55 10° SSE 20:52:57 35° ESE 20:58:03 10° NE
ALOS 2.3 20:50:30 10° SSE 20:55:10 87° ENE 20:59:53 10° NNW
Cosmos 1697 Rocket 4.3 20:54:02 10° ESE 20:56:18 13° E 20:58:36 10° ENE
Cosmos 1939 Rocket 4.3 20:53:26 11° ESE 20:56:30 23° ENE 20:59:46 10° NNE
Lacrosse 5 3.9 20:55:26 10° NNW 20:58:54 18° NNE 21:02:23 10° ENE
Meteor 1-23 Rocket 4.2 20:53:34 10° N 20:59:13 84° E 21:04:55 10° S
NOSS 3-4 (A) 4.0 20:52:21 10° NNW 20:59:16 60° NE 21:06:11 12° SE
NOSS 3-4 (C) 4.0 20:52:28 10° NNW 20:59:23 59° NE 21:06:16 12° SE
H-2A R/B 2.7 20:57:29 10° SSE 21:01:21 86° ENE 21:05:16 10° N
Cosmos 1570 Rocket 4.2 20:57:18 10° S 21:02:26 52° ESE 21:07:34 10° NNE
Meteor 2-16 Rocket 4.4 20:58:00 10° S 21:04:01 69° E 21:10:04 10° NNE
Cosmos 2369 4.1 21:00:13 10° S 21:05:24 39° ESE 21:10:39 10° NE
SPOT 5 4.4 21:03:42 13° ESE 21:06:41 21° ENE 21:10:17 10° NNE
Envisat 3.7 21:08:01 14° SE 21:11:54 35° ENE 21:16:28 10° N
DELTA 2 R/B (1) 3.6 21:08:17 10° W 21:13:50 76° S 21:18:27 15° E
CZ-2D R/B 3.9 21:10:41 10° S 21:14:28 58° W 21:18:19 10° NNW
Cosmos 1980 Rocket 4.2 21:19:03 10° E 21:19:03 10° E 21:19:04 10° E
Cosmos 2123 Rocket 3.9 21:12:49 10° N 21:19:02 77° E 21:25:12 10° S
Hubble Space Telescope 2.9 21:18:14 10° SW 21:20:10 13° S 21:21:37 11° SSE
Cosmos 1346 Rocket 2.7 21:20:02 10° N 21:23:59 90° E 21:27:52 10° S
CZ-4 DEB 2.6 21:30:12 22° SSE 21:32:07 85° ENE 21:35:16 10° NNW
deb Chang Zheng 4 4.2 21:29:34 10° NNE 21:33:43 36° E 21:35:52 23° SSE
H-2A R/B 2.6 21:32:15 26° ESE 21:33:50 37° ENE 21:37:38 10° N
NOSS 7 (E) 4.3 21:31:08 10° SSW 21:34:41 86° ESE 21:38:05 10° NE
Iridium 4 Rocket 3.4 21:33:17 10° N 21:38:32 68° E 21:42:11 17° SSE
Cosmos 1626 Rocket 3.5 21:34:09 10° N 21:38:34 67° E 21:41:12 23° SSE
ASTEX 1 4.4 21:35:18 10° NNE 21:39:28 26° E 21:40:10 25° E
Cosmos 1459 Rocket 4.5 21:36:29 21° SE 21:39:46 37° E 21:45:15 10° NNE
Cosmos 1455 Rocket 3.8 21:38:27 10° SSW 21:42:41 54° W 21:46:58 10° N
Cosmos 2227 Rocket 2.1 21:37:08 10° NNW 21:42:49 86° ENE 21:46:32 23° SSE
Tiangong 1 1.1 21:41:09 10° W 21:44:14 75° N 21:45:06 43° ENE
NOSS 7 (H) 4.2 21:41:49 10° SSW 21:45:02 60° ESE 21:48:22 10° NE
Cosmos 1153 Rocket 4.4 21:38:58 10° S 21:45:09 72° E 21:51:17 10° NNE
Cosmos 1602 Rocket 3.5 21:41:35 10° N 21:46:05 81° E 21:48:43 24° SSE
Cosmos 1898 Rocket 4.0 21:43:24 10° N 21:48:28 43° ENE 21:50:22 31° ESE
Cosmos 1500 3.2 21:50:00 44° SE 21:50:45 52° E 21:54:25 10° NNE
Nimbus 7 Rocket 4.5 21:45:14 10° NNE 21:51:12 57° ESE 21:57:02 11° S
ERS-1 Rocket 3.1 21:47:20 16° S 21:51:21 76° WSW 21:56:23 10° NNW
USA 186 4.5 21:51:36 10° SW 21:53:49 17° W 21:55:59 10° NW
Cosmos 2082 3.7 21:48:59 10° NNW 21:54:37 82° WSW 21:57:54 26° SSE
Cosmos 1802 Rocket 4.4 21:54:07 28° SE 21:57:01 44° E 22:03:04 10° NNE
Terra 3.9 21:56:54 13° ENE 21:57:02 13° ENE 21:59:06 10° NE
OAO 2 Rocket 4.1 21:53:33 10° SW 21:58:03 32° SSE 21:58:17 32° SSE
Cosmos 2297 Rocket 2.1 21:53:12 10° NNW 21:58:53 83° ENE 22:01:34 33° SSE
OTV 4 1.7 21:57:27 10° WSW 21:59:29 31° SW 21:59:29 31° SW
Cosmos 1447 Rocket 4.5 21:54:11 10° N 22:00:31 88° W 22:05:16 19° S
Cosmos 1656 3.6 21:55:33 10° S 22:01:06 64° ESE 22:06:37 10° NNE
Cosmos 1975 3.2 21:59:17 11° SSW 22:03:14 64° W 22:07:20 10° N
Cosmos 1461 3.0 22:01:21 10° NW 22:05:23 64° WSW 22:06:17 47° S
Cosmos 1340 3.9 22:05:27 10° N 22:08:04 28° NE 22:08:04 28° NE
Cosmos 468 Rocket 3.9 22:09:55 34° S 22:12:00 62° ESE 22:17:04 10° NNE
Cosmos 1515 3.9 22:08:42 10° NNW 22:12:32 66° W 22:13:25 48° SSW
Lacrosse 5 rocket 1.0 22:13:55 10° NW 22:17:23 77° NNW 22:17:23 77° NNW
Cosmos 1814 Rocket 4.0 22:16:31 45° SSE 22:17:52 60° ESE 22:23:06 10° NNE
Cosmos 1743 3.2 22:19:32 50° NE 22:19:32 50° NE 22:22:40 10° NNE
Cosmos 2016 Rocket 4.0 22:19:13 44° SE 22:20:49 56° E 22:26:50 10° NNE
Cosmos 1606 Rocket 4.1 22:21:42 43° ENE 22:21:42 43° ENE 22:25:09 10° NNE
Cosmos 220 Rocket 4.4 22:19:51 10° NNW 22:23:59 56° WSW 22:24:43 48° SW
Cosmos 2084 3.6 22:20:35 10° NNW 22:24:26 57° NE 22:24:26 57° NE
Cosmos 1066 Rocket 4.3 22:20:50 10° NNW 22:26:28 75° W 22:28:48 37° S
USA 215 3.5 22:26:30 37° E 22:29:01 60° NE 22:35:26 10° NW
Cosmos 2298 Rocket 4.1 22:26:55 10° NNW 22:32:13 71° WSW 22:33:29 51° S
BREEZE-M DEB (TANK) 4.5 22:28:44 10° NW 22:32:57 67° NNE 22:38:25 31° ESE
Cosmos 2173 Rocket 4.0 22:30:10 26° S 22:34:02 84° W 22:40:26 10° N
YAOGAN 6 3.2 22:34:49 57° NW 22:34:49 57° NW 22:37:59 10° NNW
Milstar 3 Cent rocket 4.1 22:18:17 10° WSW 22:34:57 43° SSW 22:38:08 36° SSE
Cosmos 2061 Rocket 4.0 22:32:02 26° SSW 22:35:49 82° W 22:42:07 10° N
Cosmos 858 Rocket 4.5 22:30:36 10° NNW 22:35:54 81° WSW 22:36:45 63° S
MetOp-A 4.3 22:36:46 45° SSW 22:38:18 66° WSW 22:43:38 10° NNW
Cosmos 1697 Rocket 2.6 22:35:31 21° SSW 22:39:26 85° WNW 22:45:07 10° NNE
SL-16 R/B 4.4 22:44:20 11° NE 22:44:20 11° NE 22:44:43 10° NE
H-2A R/B 2.7 22:41:13 39° NE 22:41:13 39° NE 22:45:20 10° N
GEOS 3 Rocket 3.4 22:35:38 10° NE 22:40:47 77° SE 22:41:24 67° S
Cosmos 2100 Rocket 4.2 22:36:41 20° SSW 22:41:11 68° W 22:47:27 10° N
Lacrosse 5 2.1 22:37:51 10° NW 22:42:51 56° NE 22:43:01 56° NE
Tsikada Rocket 4.1 22:37:52 10° N 22:44:10 55° ENE 22:44:43 54° E
Cosmos 2098 Rocket 4.1 22:42:50 53° SSE 22:44:19 66° E 22:50:34 10° NNE
SPOT 5 3.6 22:42:56 38° SSW 22:44:25 49° W 22:49:14 10° NNW
NOAA 11 4.0 22:44:16 71° SSE 22:44:55 86° ENE 22:50:25 10° NNW
Cosmos 1726 Rocket 4.2 22:47:06 48° NNE 22:47:06 48° NNE 22:50:21 10° N
Cosmos 1864 Rocket 4.4 22:47:51 60° E 22:47:56 60° E 22:53:57 10° NNE
Cosmos 1937 Rocket 3.7 22:53:03 10° NNW 22:58:15 64° WSW 22:58:26 63° WSW
Cosmos 1825 Rocket 4.3 22:54:15 10° NNW 22:58:19 48° W 22:58:19 48° W
SPOT 1/Viking Rocket 3.7 22:58:58 63° WSW 22:59:18 64° WSW 23:04:30 10° NNW
DELTA 2 R/B (1) 4.0 22:54:41 10° W 22:59:13 51° SW 22:59:13 51° SW
Cosmos 1980 Rocket 2.1 23:00:44 85° NE 23:00:44 85° NE 23:06:19 10° NNE
RESURS DK-1 3.5 22:57:28 10° NNW 23:00:21 43° NW 23:00:21 43° NW
Meteor 1-21 4.4 22:57:29 10° NNW 23:03:11 65° W 23:03:55 59° SW
Cosmos 1953 Rocket 4.4 23:01:49 10° NNW 23:05:27 49° NW 23:05:27 49° NW
ARGOS 3.4 23:08:12 59° WSW 23:08:24 59° WSW 23:13:44 10° NNW
H-2A R/B 4.2 23:09:24 17° WSW 23:09:59 17° W 23:12:44 10° NW
Cosmos 1816 Rocket 4.4 23:09:08 10° N 23:15:22 76° ENE 23:15:22 76° ENE
Cosmos 990 Rocket 4.5 23:12:13 10° NNW 23:16:52 55° W 23:16:52 55° W
Cosmos 1725 Rocket 3.9 23:17:04 75° WSW 23:17:26 78° W 23:23:42 10° N
CZ-4B R/B 4.3 23:20:42 10° N 23:24:59 44° WNW 23:24:59 44° WNW
Cosmos 2322 Rocket 3.7 23:33:40 27° NE 23:33:40 27° NE 23:36:12 10° NNE
Cosmos 2263 Rocket 3.4 23:27:06 10° N 23:31:08 32° NE 23:31:08 32° NE
Terra 3.0 23:35:48 41° NNW 23:35:48 41° NNW 23:38:54 10° NNW
Cosmos 1125 Rocket 4.3 23:31:37 10° NNW 23:35:17 47° NNW 23:35:17 47° NNW
Cosmos 2233 Rocket 4.2 23:48:31 65° NNW 23:48:31 65° NNW 23:53:57 10° N
